DW7423 Weather Reports


Display with metric or nautical units.
time (UTC)temp
F
wind
direction
speed
MPH
gust
MPH
rain 1hr
in
rain 24hr
in
rain mn
in
humidity
%
barometer
mb
20240520161548 85 221 3.0 10.0 0.00 0.00 0.00 64 1010.4
20240520160042 84 190 4.0 10.0 0.00 0.00 0.00 68 1010.4
20240520154545 82 171 2.0 6.0 0.00 0.00 0.00 73 1010.4
20240520153031 81 178 3.0 12.0 0.00 0.00 0.00 73 1010.5
20240520151529 81 199 3.0 9.0 0.00 0.00 0.00 76 1010.5
20240520150032 79 234 2.0 7.0 0.00 0.00 0.00 78 1010.4
20240520144522 78 223 1.0 8.0 0.00 0.00 0.00 83 1010.5
20240520143022 76 196 2.0 9.0 0.00 0.00 0.00 83 1010.5
20240520141521 77 197 2.0 7.0 0.00 0.00 0.00 85 1010.5
20240520140024 75 198 0.0 4.0 0.00 0.00 0.00 86 1010.5
20240520134519 74 207 0.0 7.0 0.00 0.00 0.00 87 1010.4
20240520133029 74 221 0.0 7.0 0.00 0.00 0.00 87 1010.3
20240520131531 73 221 0.0 3.0 0.00 0.00 0.00 87 1010.2
20240520130016 73 221 0.0 4.0 0.00 0.00 0.00 87 1009.9
20240520124518 72 221 0.0 4.0 0.00 0.00 0.00 87 1009.8
20240520123016 71 221 0.0 3.0 0.00 0.00 0.00 87 1009.6
20240520121513 70 221 0.0 5.0 0.00 0.00 0.00 87 1009.4
20240520120029 70 221 0.0 3.0 0.00 0.00 0.00 87 1009.5
20240520114511 70 221 0.0 0.0 0.00 0.00 0.00 87 1009.6
20240520113012 70 221 0.0 2.0 0.00 0.00 0.00 87 1009.4
20240520111510 70 221 0.0 2.0 0.00 0.00 0.00 87 1009.2
20240520110010 70 221 0.0 2.0 0.00 0.00 0.00 87 1009.3
20240520104511 69 221 0.0 2.0 0.00 0.00 0.00 87 1009.2
20240520103009 69 221 0.0 2.0 0.00 0.00 0.00 87 1009.3
20240520101508 69 221 0.0 0.0 0.00 0.00 0.00 87 1009.2
20240520100006 70 221 0.0 0.0 0.00 0.00 0.00 87 1009.2
20240520094505 70 221 0.0 1.0 0.00 0.00 0.00 86 1009.1
20240520093002 70 221 0.0 3.0 0.00 0.00 0.00 86 1008.9
20240520091501 71 221 0.0 3.0 0.00 0.00 0.00 86 1008.9
20240520090106 71 221 0.0 4.0 0.00 0.00 0.00 85 1009.0
20240520084612 71 221 0.0 4.0 0.00 0.00 0.00 85 1008.9
20240520083059 71 202 2.0 6.0 0.00 0.00 0.00 85 1008.9
20240520081555 72 215 0.0 5.0 0.00 0.00 0.00 84 1009.0
20240520080053 72 223 0.0 6.0 0.00 0.00 0.00 84 1009.1
20240520074551 72 188 1.0 5.0 0.00 0.00 0.00 82 1009.0
20240520073049 73 217 2.0 8.0 0.00 0.00 0.00 81 1009.2
20240520071547 73 217 2.0 6.0 0.00 0.00 0.00 79 1009.4
20240520070044 74 177 2.0 9.0 0.00 0.00 0.00 77 1009.4
20240520064542 74 209 1.0 12.0 0.00 0.00 0.00 76 1009.6
20240520063050 75 191 3.0 7.0 0.00 0.00 0.00 77 1009.6
20240520061538 75 179 3.0 9.0 0.00 0.00 0.00 77 1009.7
20240520060036 75 200 4.0 12.0 0.00 0.00 0.00 79 1009.7
20240520054534 76 192 5.0 10.0 0.00 0.00 0.00 81 1009.3
20240520053036 77 146 4.0 16.0 0.00 0.00 0.00 81 1009.5
20240520051527 77 189 5.0 10.0 0.00 0.00 0.00 80 1009.5
20240520050100 78 205 2.0 7.0 0.00 0.00 0.00 79 1009.7
20240520044522 78 237 2.0 9.0 0.00 0.00 0.00 77 1009.6
20240520043030 79 226 1.0 8.0 0.00 0.00 0.00 75 1009.7
20240520041524 80 227 1.0 7.0 0.00 0.00 0.00 73 1009.6
20240520040022 80 204 4.0 10.0 0.00 0.00 0.00 71 1009.7
20240520034532 81 188 3.0 11.0 0.00 0.00 0.00 69 1009.6
20240520033023 81 194 5.0 11.0 0.00 0.00 0.00 68 1009.6
20240520031523 82 182 3.0 8.0 0.00 0.00 0.00 67 1009.6
20240520030022 82 180 6.0 10.0 0.00 0.00 0.00 65 1009.3
20240520024526 83 170 3.0 8.0 0.00 0.00 0.00 64 1009.3
20240520023022 83 183 2.0 8.0 0.00 0.00 0.00 63 1009.3
20240520021528 84 168 1.0 6.0 0.00 0.00 0.00 61 1009.3
20240520020023 84 175 2.0 8.0 0.00 0.00 0.00 60 1009.2
20240520014517 85 178 3.0 9.0 0.00 0.00 0.00 59 1009.2
20240520013016 86 177 2.0 7.0 0.00 0.00 0.00 58 1009.1
20240520011517 86 185 2.0 7.0 0.00 0.00 0.00 56 1009.2
20240520010017 87 184 4.0 9.0 0.00 0.00 0.00 54 1009.2
20240520004515 87 162 0.0 7.0 0.00 0.00 0.00 53 1009.3
20240520003014 88 189 4.0 10.0 0.00 0.00 0.00 53 1009.0
20240520001513 88 186 5.0 11.0 0.00 0.00 0.00 52 1009.0
20240520000012 89 154 2.0 12.0 0.00 0.00 0.00 52 1009.3
20240519234511 89 202 4.0 11.0 0.00 0.00 0.00 51 1009.4
20240519233008 89 189 3.0 9.0 0.00 0.00 0.00 51 1009.5
20240519231507 90 161 4.0 11.0 0.00 0.00 0.00 51 1009.7
20240519230008 90 188 4.0 11.0 0.00 0.00 0.00 52 1009.7
20240519224505 90 209 6.0 9.0 0.00 0.00 0.00 52 1009.7
20240519223004 90 200 4.0 8.0 0.00 0.00 0.00 52 1009.7
20240519221502 90 202 5.0 11.0 0.00 0.00 0.00 51 1009.9
20240519220001 90 192 5.0 12.0 0.00 0.00 0.00 51 1010.0
20240519214559 90 218 4.0 10.0 0.00 0.00 0.00 50 1010.1
20240519213058 90 215 3.0 14.0 0.00 0.00 0.00 52 1010.2
20240519211557 90 217 2.0 9.0 0.00 0.00 0.00 53 1010.4
20240519210059 90 207 4.0 10.0 0.00 0.00 0.00 53 1010.7
20240519204552 91 186 6.0 10.0 0.00 0.00 0.00 52 1010.9
20240519203050 90 140 3.0 10.0 0.00 0.00 0.00 54 1011.1
20240519201604 90 200 5.0 14.0 0.00 0.00 0.00 53 1011.3
20240519200057 90 207 6.0 10.0 0.00 0.00 0.00 54 1011.5
20240519194546 90 177 4.0 11.0 0.00 0.00 0.00 54 1011.8
20240519193048 89 170 6.0 14.0 0.00 0.00 0.00 56 1011.9
20240519191544 90 183 4.0 16.0 0.00 0.00 0.00 55 1012.1
20240519190050 89 215 3.0 11.0 0.00 0.00 0.00 56 1012.3
20240519184543 89 216 3.0 12.0 0.00 0.00 0.00 58 1012.4
20240519183036 88 180 4.0 11.0 0.00 0.00 0.00 59 1012.7
20240519181550 88 163 4.0 12.0 0.00 0.00 0.00 59 1012.9
20240519180029 88 187 2.0 7.0 0.00 0.00 0.00 60 1013.2
20240519174536 87 198 6.0 10.0 0.00 0.00 0.00 61 1013.4
20240519173024 86 200 3.0 10.0 0.00 0.00 0.00 62 1013.6
20240519171521 85 206 3.0 9.0 0.00 0.00 0.00 66 1014.0
20240519170024 85 194 5.0 11.0 0.00 0.00 0.00 65 1014.1
20240519164519 84 205 4.0 14.0 0.00 0.00 0.00 65 1014.2
20240519163029 84 182 6.0 9.0 0.00 0.00 0.00 67 1014.2